Regional Weather Roundup
Issued by NWS

Home | Current Version | Previous Version | Graphics & Text | Print | Product List | Glossary On
Versions: 1 2 3 4 5 6 7 8 9 10 11 12 13 14 15 16 17 18 19 20 21 22 23 24 25 26 27 28 29 30 31 32 33 34 35 36 37 38 39 40 41 42 43 44 45 46 47 48 49 50
000
ASUS43 KFSD 190802
RWRSD

WEATHER ROUNDUP FOR SOUTH DAKOTA
NATIONAL WEATHER SERVICE SIOUX FALLS SD
300 AM CDT SAT AUG 19 2017

NOTE: "FAIR" INDICATES FEW OR NO CLOUDS BELOW 12,000 FEET WITH NO
SIGNIFICANT WEATHER AND/OR OBSTRUCTIONS TO VISIBILITY.


SDZ001>005-009-010-012>017-190900-
NORTHWEST AND NORTH CENTRAL SOUTH DAKOTA

CITY           SKY/WX    TMP DP  RH WIND       PRES   REMARKS
BUFFALO          N/A     62  48  60 E3        29.83F
FAITH            N/A     60  52  74 SE14      29.93F
MOBRIDGE       CLEAR     61  58  90 SE9       29.91S
$$

SDZ012>016-024>037-041>051-057-063-072>074-190900-
SOUTHWEST AND SOUTH CENTRAL SOUTH DAKOTA

CITY           SKY/WX    TMP DP  RH WIND       PRES   REMARKS
RAPID CTY ARPT CLEAR     60  48  64 S9        29.95F
PIERRE         CLEAR     62  56  80 SE8       29.93F
CUSTER         CLEAR     51  40  65 NW5       30.10F
ELLSWORTH AFB  CLEAR     64  48  57 SE9       29.94F
PHILIP         CLEAR     65  52  62 VRB3      29.94F
PINE RIDGE     CLEAR     70  53  54 S16G25    29.96F
SPEARFISH      FAIR      73  39  29 VRB7G15   29.94F
WINNER         FAIR      65  58  78 S10       29.98S
$$

SDZ004>011-016>023-039-040-190900-
NORTHEAST SOUTH DAKOTA

CITY           SKY/WX    TMP DP  RH WIND       PRES   REMARKS
ABERDEEN       CLEAR     53  53 100 SW6       29.92F
WATERTOWN      FOG       54  54 100 CALM      29.93S VSB 1/4
BROOKINGS      CLEAR     59  58  96 CALM      29.94F
SISSETON         N/A     58  56  93 SW6       29.90S
$$

SDZ017-020-022-023-036>040-048>070-190900-
SOUTHEAST SOUTH DAKOTA

CITY           SKY/WX    TMP DP  RH WIND       PRES   REMARKS
SIOUX FALLS    CLEAR     59  58  96 CALM      29.94F
HURON          CLEAR     59  57  93 S3        29.94F
CHAMBERLAIN    CLEAR     59  57  94 SE3       29.96F
MITCHELL       CLEAR     57  55  93 CALM      29.96S
YANKTON        CLEAR     59  56  89 SW8       29.96S
$$

ABBREVIATIONS USED IN REMARKS
   TC - TEMPERATURE IN CELSIUS
  WCI - WIND CHILL INDEX
   HX - HEAT INDEX
  VSB - VISIBILITY





USA.gov is the U.S. government's official web portal to all federal, state and local government web resources and services.